Weather History for Rygge, Norway

Change the Weather History Date:

Thursday, January 24, 2013

  Actual Average Record
Temperature  
Mean Temperature 16 °F -  
Max Temperature 25 °F 33 °F 42 °F (2008)
Min Temperature 5 °F 23 °F 3 °F (2000)
Degree Days  
Heating Degree Days 50    
Moisture  
Dew Point 9 °F    
Average Humidity 79    
Maximum Humidity 92    
Minimum Humidity 61    
Precipitation  
Precipitation 0.00 in - - ()
Sea Level Pressure  
Sea Level Pressure 30.09 in    
Wind  
Wind Speed 4 mph ()    
Max Wind Speed 9 mph    
Max Gust Speed -    
Visibility 8.0 miles    
Events      
Averages and records for this station are not official NWS values.
T = Trace of Precipitation, MM = Missing Value Source: Averaged Metar Reports

Daily Weather History Graph

Daily Weather History Graph

Search for Another Location

Airport:

Trip Planner

Search our weather history database for the weather conditions in past years. The results will help you decide how hot, cold, wet, or windy it might be!

Date:

Astronomy

Jan. 24, 2013 Rise Set
Actual Time 8:44 AM CET 4:14 PM CET
Civil Twilight 7:55 AM CET 5:03 PM CET
Nautical Twilight 7:04 AM CET 5:54 PM CET
Astronomical Twilight 6:16 AM CET 6:42 PM CET
Moon 1:50 PM CET (1/24) 6:41 AM CET (1/24)
Length of Visible Light 9h 07m
Length of Day
7h 30m
Waxing Gibbous, 93% of the Moon is Illuminated
Jan 24
Waxing Gibbous
Jan 27
Full
Feb 3
Last Quarter
Feb 10
New
Feb 17
First Quarter

Hourly Weather History & Observations

Time (CET) Temp. Windchill Dew Point Humidity Pressure Visibility Wind Dir Wind Speed Gust Speed Precip Events Conditions
12:20 AM 8.6 °F -1.3 °F 3.2 °F 79% 30.01 in 6.2 mi NNW 5.8 mph - N/A   Unknown
12:50 AM 8.6 °F -1.3 °F 3.2 °F 79% 30.04 in 6.2 mi NNW 5.8 mph - N/A   Unknown
1:00 AM 8 °F - 4 °F 77% 30.06 in 14 mi North 6.7 mph - -   Clear
1:20 AM 8.6 °F -1.3 °F 5.0 °F 85% 30.04 in 6.2 mi NNW 5.8 mph - N/A   Unknown
1:50 AM 8.6 °F 0.1 °F 5.0 °F 85% 30.04 in 6.2 mi North 4.6 mph - N/A   Unknown
2:20 AM 8.6 °F -1.3 °F 3.2 °F 79% 30.04 in 6.2 mi NNW 5.8 mph - N/A   Unknown
2:50 AM 8.6 °F -1.3 °F 5.0 °F 85% 30.04 in 6.2 mi North 5.8 mph - N/A   Unknown
3:20 AM 8.6 °F 2.0 °F 3.2 °F 79% 30.04 in 6.2 mi NNW 3.5 mph - N/A   Unknown
3:50 AM 8.6 °F -1.3 °F 5.0 °F 85% 30.04 in 6.2 mi NNW 5.8 mph - N/A   Mostly Cloudy
4:20 AM 12.2 °F 4.3 °F 6.8 °F 79% 30.04 in 6.2 mi NNW 4.6 mph - N/A   Overcast
4:50 AM 12.2 °F 4.3 °F 6.8 °F 79% 30.04 in 6.2 mi North 4.6 mph - N/A   Overcast
5:20 AM 12.2 °F 2.9 °F 6.8 °F 79% 30.04 in 6.2 mi North 5.8 mph - N/A   Overcast
5:50 AM 14.0 °F 3.9 °F 8.6 °F 79% 30.04 in 6.2 mi North 6.9 mph - N/A   Overcast
6:20 AM 14.0 °F 3.9 °F 8.6 °F 79% 30.04 in - North 6.9 mph - N/A   Clear
6:50 AM 14.0 °F 2.9 °F 8.6 °F 79% 30.06 in - North 8.1 mph - N/A   Clear
7:00 AM 14 °F - 9 °F 73% 30.08 in 16 mi North 8.9 mph - -   Partly Cloudy
7:20 AM 14.0 °F 3.9 °F 8.6 °F 79% 30.06 in - North 6.9 mph - N/A   Clear
7:50 AM 14.0 °F 3.9 °F 8.6 °F 79% 30.06 in - North 6.9 mph - N/A   Clear
8:20 AM 14.0 °F 3.9 °F 8.6 °F 79% 30.06 in - NNW 6.9 mph - N/A   Clear
8:50 AM 14.0 °F 5.1 °F 8.6 °F 79% 30.06 in - North 5.8 mph - N/A   Clear
9:20 AM 14.0 °F 6.5 °F 10.4 °F 86% 30.06 in - NNW 4.6 mph - N/A   Clear
9:50 AM 15.8 °F 8.6 °F 10.4 °F 79% 30.06 in - North 4.6 mph - N/A   Clear
10:20 AM 15.8 °F 8.6 °F 10.4 °F 79% 30.09 in - North 4.6 mph - N/A   Clear
10:50 AM 17.6 °F 10.7 °F 10.4 °F 73% 30.09 in - North 4.6 mph - N/A   Clear
11:20 AM 17.6 °F 10.7 °F 12.2 °F 79% 30.09 in - NNE 4.6 mph - N/A   Clear
11:50 AM 19.4 °F 14.3 °F 12.2 °F 74% 30.09 in - North 3.5 mph - N/A   Clear
12:20 PM 21.2 °F 16.4 °F 12.2 °F 68% 30.09 in - NNW 3.5 mph - N/A   Clear
12:50 PM 21.2 °F - 14.0 °F 74% 30.09 in - Variable 1.2 mph - N/A   Clear
1:00 PM 22 °F - 14 °F 61% 30.13 in 19 mi NNW 2.2 mph - -   Partly Cloudy
1:20 PM 23.0 °F - 12.2 °F 63% 30.09 in - NW 2.3 mph - N/A   Clear
1:50 PM 23.0 °F - 14.0 °F 68% 30.09 in - Variable 2.3 mph - N/A   Clear
2:20 PM 24.8 °F 20.5 °F 15.8 °F 69% 30.09 in - NW 3.5 mph - N/A   Clear
2:50 PM 24.8 °F - 15.8 °F 69% 30.09 in - Variable 2.3 mph - N/A   Clear
3:20 PM 24.8 °F 20.5 °F 15.8 °F 69% 30.09 in - NW 3.5 mph - N/A   Clear
3:50 PM 24.8 °F - 15.8 °F 69% 30.09 in - Calm Calm - N/A   Clear
4:20 PM 23.0 °F - 15.8 °F 74% 30.12 in - Calm Calm - N/A   Clear
4:50 PM 23.0 °F - 15.8 °F 74% 30.12 in - Calm Calm - N/A   Clear
5:20 PM 21.2 °F - 14.0 °F 74% 30.12 in - Calm Calm - N/A   Clear
5:50 PM 21.2 °F - 14.0 °F 74% 30.12 in - Calm Calm - N/A   Clear
6:20 PM 21.2 °F - 14.0 °F 74% 30.12 in - Calm Calm - N/A   Clear
6:50 PM 17.6 °F - 12.2 °F 79% 30.12 in - Calm Calm - N/A   Clear
7:00 PM 17 °F - 13 °F 77% 30.16 in 25 mi Calm Calm - -   Partly Cloudy
7:20 PM 15.8 °F - 10.4 °F 79% 30.12 in - Calm Calm - N/A   Clear
7:50 PM 14.0 °F - 10.4 °F 86% 30.12 in - Calm Calm - N/A   Clear
8:20 PM 10.4 °F - 8.6 °F 92% 30.12 in - East 2.3 mph - N/A   Clear
8:50 PM 10.4 °F - 8.6 °F 92% 30.12 in - Calm Calm - N/A   Clear
9:20 PM 10.4 °F - 6.8 °F 85% 30.15 in - Calm Calm - N/A   Clear
9:50 PM 8.6 °F - 6.8 °F 92% 30.15 in 6.2 mi East 2.3 mph - N/A   Unknown
10:20 PM 6.8 °F - 5.0 °F 92% 30.15 in - Calm Calm - N/A   Clear
10:50 PM 6.8 °F - 5.0 °F 92% 30.15 in - Calm Calm - N/A   Clear
11:20 PM 6.8 °F - 5.0 °F 92% 30.15 in - ENE 2.3 mph - N/A   Clear
11:50 PM 5.0 °F - 3.2 °F 92% 30.12 in 6.2 mi NE 2.3 mph - N/A   Unknown